FW4287 Weather Reports


Display with metric or nautical units.
time (UTC)temp
F
wind
direction
speed
MPH
gust
MPH
rain 1hr
in
rain 24hr
in
rain mn
in
humidity
%
barometer
mb
20260905024531 55 193 0.0 2.0 0.00 0.00 0.00 84 1016.4
20260905021532 58 22 3.0 6.0 0.00 0.00 0.00 76 1016.4
20260905020032 59 9 4.0 6.0 0.00 0.00 0.00 75 1016.2
20260905014531 59 5 4.0 6.0 0.00 0.00 0.00 75 1016.0
20260905011529 59 13 3.0 6.0 0.00 0.00 0.00 73 1015.8
20260905010030 61 12 3.0 8.0 0.00 0.00 0.00 68 1015.7
20260905004527 61 156 1.0 3.0 0.00 0.00 0.00 66 1015.6
20260905003033 61 173 2.0 5.0 0.00 0.00 0.00 70 1015.5
20260905001534 61 167 2.0 4.0 0.00 0.00 0.00 73 1015.4
20260904234532 61 112 0.0 2.0 0.00 0.00 0.00 73 1015.4
20260904231646 60 133 2.0 3.0 0.00 0.00 0.00 78 1015.5
20260904223031 58 188 2.0 6.0 0.00 0.00 0.00 82 1015.4
20260904220030 60 174 3.0 9.0 0.00 0.00 0.00 69 1015.2
20260904214533 60 199 1.0 4.0 0.00 0.00 0.00 69 1015.1
20260904213030 60 226 2.0 5.0 0.00 0.00 0.00 71 1015.0
20260904211532 59 230 2.0 5.0 0.00 0.00 0.00 73 1014.9
20260904210029 59 245 2.0 5.0 0.00 0.00 0.00 74 1014.8
20260904204530 59 254 3.0 6.0 0.00 0.00 0.00 75 1014.8
20260904200031 58 270 3.0 5.0 0.00 0.00 0.00 78 1015.1
20260904191530 57 192 2.0 4.0 0.00 0.00 0.00 82 1015.3
20260904190031 56 159 2.0 4.0 0.00 0.00 0.00 83 1015.4
20260904184533 55 194 2.0 6.0 0.00 0.00 0.00 85 1015.4
20260904183031 55 201 1.0 5.0 0.00 0.00 0.00 86 1015.3
20260904181532 54 283 0.0 2.0 0.00 0.00 0.00 88 1015.2
20260904180027 53 212 0.0 3.0 0.00 0.00 0.00 90 1015.2
20260904174530 52 180 0.0 2.0 0.00 0.00 0.00 92 1015.1
20260904173031 52 193 3.0 5.0 0.00 0.00 0.00 92 1015.2
20260904164529 52 222 2.0 5.0 0.00 0.00 0.00 94 1015.0
20260904163032 52 34 1.0 3.0 0.00 0.00 0.00 96 1015.0
20260904154529 50 67 2.0 3.0 0.00 0.00 0.00 99 1014.8
20260904151528 49 42 0.0 2.0 0.00 0.00 0.00 99 1014.5
20260904150029 49 202 0.0 0.0 0.00 0.01 0.00 99 1014.4
20260904143033 48 202 0.0 0.0 0.00 0.01 0.00 99 1014.1
20260904140104 48 202 0.0 0.0 0.00 0.01 0.00 99 1013.8
20260904134531 48 202 0.0 0.0 0.00 0.01 0.00 98 1013.7
20260904131532 48 202 0.0 0.0 0.00 0.01 0.00 98 1013.4
20260904130147 48 202 0.0 0.0 0.00 0.01 0.00 98 1013.2
20260904124606 48 202 0.0 0.0 0.00 0.01 0.00 98 1013.2
20260904114530 47 67 0.0 0.0 0.00 0.01 0.00 98 1012.9
20260904113107 47 67 0.0 0.0 0.00 0.01 0.00 98 1012.8
20260904111530 47 67 0.0 0.0 0.00 0.01 0.00 98 1012.7
20260904110028 47 67 0.0 0.0 0.00 0.01 0.00 98 1012.6
20260904104607 47 67 0.0 0.0 0.00 0.01 0.00 98 1012.5
20260904103030 47 67 0.0 0.0 0.00 0.01 0.00 98 1012.4
20260904101531 47 67 0.0 0.0 0.00 0.01 0.00 98 1012.2
20260904100030 46 67 0.0 0.0 0.00 0.01 0.00 98 1012.1
20260904094606 46 67 0.0 0.0 0.00 0.01 0.00 98 1012.1
20260904093028 46 67 0.0 0.0 0.00 0.01 0.00 97 1012.0
20260904091526 46 67 0.0 0.0 0.00 0.01 0.00 97 1012.1
20260904090104 46 67 0.0 0.0 0.00 0.01 0.00 97 1012.0
20260904083031 46 67 0.0 0.0 0.00 0.01 0.00 97 1011.9
20260904074531 47 36 0.0 0.0 0.00 0.01 0.00 97 1011.9
20260904073105 46 67 0.0 0.0 0.00 0.01 0.00 96 1011.9
20260904071530 47 67 0.0 0.0 0.00 0.01 0.00 96 1011.9
20260904064529 46 67 0.0 0.0 0.00 0.01 0.01 96 1011.8
20260904063026 47 67 0.0 0.0 0.00 0.01 0.01 95 1011.8
20260904061530 48 67 0.0 0.0 0.00 0.01 0.01 95 1011.8
20260904060030 48 67 0.0 0.0 0.00 0.01 0.01 95 1011.8
20260904053031 49 67 0.0 0.0 0.00 0.01 0.01 94 1011.8
20260904051532 49 67 0.0 0.0 0.00 0.01 0.01 94 1011.8
20260904050029 49 67 0.0 0.0 0.00 0.01 0.01 94 1011.8
20260904034529 51 67 0.0 0.0 0.00 0.01 0.01 90 1011.9
20260904033028 51 67 0.0 2.0 0.00 0.02 0.01 88 1011.8
20260904031646 52 67 1.0 3.0 0.00 0.02 0.01 87 1011.7
20260904030030 52 46 2.0 4.0 0.00 0.02 0.01 85 1011.6